Powrót do katalogu

STARLINK-5818

AktywnyŁącznośćVLEO
NORAD 55785·PAYLOAD·🇺🇸 United States

Wystrzelony Mar 3, 2023 z Vandenberg Space Force Base

Loading…

Następne Przeloty (najbliższe 24 godziny)

TLE

ŚwieżeSource: CelesTrak SupGP

Epoka: Sep 15, 2026, 02:42 UTC

1 55785C 23028AW  26258.11298611 -.00045957  00000+0 -38525-2 0  2581
2 55785  70.0001  87.0084 0002844 272.3017 177.4274 14.98342771    16

Śledź STARLINK-5818 w czasie rzeczywistym z AllMySat

Download on the App Store